Temp
56 56 57 57 57 57 53 50 43 54 56 43 46 41 49 48 51 52 50 48 47 45 46 44 44 44 47 52 50 43 45 39 30 38 44 47 43 40 40 32 30 29 29 28
56 56 56 57 56 56 51 47 49 54 52 38 40 49 50 50 49 49 49 47 50 50 45 40 46 47 51 51 47 42 44 36 26 32 38 42 39 43 43 40 36 28 27 31
55 55 55 56 56 56 50 47 41 45 47 46 42 42 45 47 50 49 52 50 51 47 45 47 43 45 50 50 48 48 46 39 35 30 36 41 35 39 42 40 31 32 32 37
55 55 55 55 55 55 50 44 44 49 37 40 41 44 45 44 45 47 49 46 47 45 41 45 44 46 48 48 48 43 42 33 36 39 42 41 39 39 39 35 37 32 38 40
56 55 55 55 55 54 48 42 42 49 47 48 45 43 43 44 47 48 44 42 48 47 42 46 43 45 43 43 44 41 43 32 36 32 40 39 36 40 40 39 39 38 39 39
55 54 54 54 54 53 46 47 49 44 45 46 44 44 46 46 50 51 52 47 45 45 48 49 49 47 47 46 40 41 40 34 31 27 37 36 31 37 37 38 40 41 35 41
55 54 54 54 54 53 47 46 46 41 37 41 43 46 49 48 49 46 49 48 44 47 50 50 48 46 46 46 44 45 38 36 33 26 33 23 36 41 41 40 45 43 43 43
54 54 54 54 54 54 48 48 43 42 37 42 43 46 46 48 50 47 48 49 48 49 45 40 38 38 37 42 43 42 42 37 29 25 27 36 37 39 40 37 38 45 44 45
53 53 53 53 54 54 50 47 48 42 37 38 46 44 47 44 45 47 49 45 47 44 43 40 32 33 38 32 33 41 42 40 32 30 28 26 37 41 45 43 34 44 47 45
53 52 53 53 53 53 50 47 50 43 36 42 43 42 43 49 48 46 43 40 39 41 37 34 32 35 40 35 32 29 31 32 28 29 29 37 41 43 44 33 36 45 47 46
53 52 52 52 52 52 49 46 50 44 38 41 46 47 44 47 47 44 43 41 40 36 34 35 36 34 38 36 42 36 35 32 31 33 30 28 45 42 38 42 42 45 45 47
53 52 52 52 52 51 51 43 50 50 40 40 48 50 53 51 53 48 46 45 42 42 37 37 37 35 36 38 36 42 36 42 39 40 39 45 45 44 45 47 46 45 46 48
52 52 52 52 52 52 50 45 47 45 39 39 40 41 50 53 50 52 44 46 49 45 44 40 39 35 40 33 36 41 43 44 40 42 42 43 46 47 47 47 47 48 48 48
51 52 51 52 51 51 51 44 47 44 40 33 36 51 46 54 51 50 49 48 47 45 42 39 38 36 42 38 40 41 44 43 43 42 44 44 45 46 47 48 48 48 48 48
50 50 50 51 50 50 48 48 49 48 39 33 35 43 48 47 48 45 47 46 44 42 37 35 36 40 39 38 38 37 43 42 40 41 44 45 43 45 47 47 47 47 47 44
50 49 50 50 49 50 46 41 48 50 47 37 32 40 41 44 44 44 43 44 44 43 41 38 39 40 40 33 33 42 42 44 44 41 43 44 46 46 45 44 45 44 45 46
49 49 49 48 48 48 43 40 45 50 48 38 30 30 37 43 42 43 42 41 42 41 39 36 38 38 39 34 32 39 41 40 41 41 42 42 43 41 43 44 44 45 43 44
49 48 47 46 49 46 43 46 50 50 43 41 29 29 32 38 35 34 40 38 39 38 35 35 36 37 36 31 38 38 39 39 41 40 40 40 41 42 42 43 43 42 42 42
47 45 45 47 45 40 43 50 51 49 42 33 32 29 28 34 34 34 35 39 33 36 34 35 37 33 29 36 37 36 36 36 37 37 38 40 39 39 39 40 40 40 40 41
44 41 39 34 41 49 48 43 40 39 40 38 33 36 28 33 32 32 32 32 32 30 33 35 32 32 34 36 36 36 36 36 35 31 32 34 34 36 36 37 39 40 40 40
33 32 33 40 45 41 37 32 32 32 30 34 35 35 30 34 32 32 35 32 32 29 30 31 30 29 31 35 34 34 34 34 34 35 35 35 35 35 36 38 38 38 38 37
35 34 36 38 35 32 30 30 32 31 31 32 32 33 35 32 35 32 33 31 31 28 31 30 28 28 31 33 33 33 33 34 34 36 35 35 35 35 35 33 31 33 33 32
34 32 32 32 30 26 27 26 28 29 32 32 32 30 32 32 33 32 32 29 28 32 29 28 26 29 32 31 31 31 32 33 33 32 33 34 33 33 34 33 34 35 34 34
31 29 23 24 22 24 25 26 27 30 32 32 32 32 32 32 32 32 28 29 30 27 25 25 27 28 30 31 32 30 30 31 29 26 27 30 31 31 32 33 34 34 33 33
28 28 21 23 27 28 28 30 29 29 33 32 32 33 34 31 30 29 28 26 25 25 23 27 28 28 29 29 30 30 29 29 27 28 25 25 27 30 29 30 31 32 32 31
29 26 24 27 25 24 25 27 27 30 32 33 33 31 27 26 29 25 22 20 21 25 27 28 28 28 29 29 30 31 32 32 30 29 29 28 27 28 28 29 29 30 30 29
24 23 27 26 26 25 25 27 28 32 31 27 28 23 22 25 19 17 23 23 26 28 28 29 29 28 29 30 30 31 31 31 30 29 28 27 26 23 24 25 27 28 28 25
MSLP
1023.02 1022.84 1022.53 1022.29 1022.16 1022.14 1022.34 1021.82 1021.24 1021.05 1020.94 1021.18 1019.92 1018.73 1017.45 1017.15 1016.27 1016.11 1015.88 1015.55 1015.14 1014.82 1014.35 1014.07 1013.77 1013.09 1012.95 1013.29 1013.94 1014.40 1014.40 1014.51 1013.99 1012.80 1012.55 1012.41 1012.74 1012.88 1012.97 1013.17 1012.51 1012.57 1012.24 1010.66
1023.01 1022.90 1022.54 1022.40 1022.00 1022.13 1022.20 1021.52 1020.70 1021.12 1021.01 1020.46 1019.29 1018.05 1017.25 1016.92 1016.52 1016.17 1015.88 1015.46 1015.02 1014.70 1014.69 1014.33 1013.59 1013.12 1013.20 1013.61 1014.16 1014.45 1014.63 1014.61 1013.95 1012.69 1012.87 1012.60 1012.69 1012.48 1012.63 1012.85 1013.24 1012.38 1011.95 1010.25
1022.91 1022.87 1022.63 1022.27 1021.99 1022.07 1022.47 1021.75 1020.54 1021.06 1020.98 1019.98 1019.45 1018.46 1017.14 1016.33 1015.87 1016.01 1015.74 1015.29 1014.97 1014.95 1014.58 1014.24 1013.68 1013.36 1013.29 1013.66 1014.28 1014.74 1015.05 1014.79 1014.29 1013.64 1012.21 1012.33 1012.10 1011.79 1011.87 1012.24 1012.43 1011.58 1011.12 1009.93
1022.73 1022.60 1022.42 1022.29 1022.18 1021.97 1022.26 1021.61 1020.16 1018.96 1019.70 1019.49 1019.04 1018.69 1017.48 1016.46 1016.02 1016.01 1015.73 1015.31 1015.00 1014.83 1014.52 1013.80 1013.29 1013.47 1013.52 1013.67 1014.22 1014.90 1015.23 1014.70 1014.12 1013.23 1012.23 1012.01 1011.27 1010.98 1011.20 1011.39 1011.28 1011.20 1010.11 1009.81
1022.24 1022.20 1022.18 1022.24 1022.24 1022.23 1021.76 1021.23 1020.46 1019.15 1018.76 1018.50 1018.16 1017.75 1016.88 1016.23 1015.65 1015.57 1015.32 1015.38 1014.63 1014.76 1014.42 1013.91 1013.44 1013.41 1013.85 1013.75 1014.46 1014.79 1014.90 1014.73 1014.01 1012.69 1011.48 1011.15 1010.67 1010.25 1010.21 1010.27 1010.20 1010.31 1010.23 1009.64
1021.65 1021.83 1021.95 1022.12 1022.15 1022.48 1021.73 1021.21 1020.61 1020.39 1018.94 1018.10 1017.48 1016.67 1016.11 1015.52 1015.12 1014.71 1014.36 1014.72 1014.92 1014.61 1014.14 1013.98 1013.72 1013.58 1013.45 1013.83 1014.22 1014.41 1014.69 1014.84 1014.50 1013.02 1011.40 1010.79 1010.28 1009.71 1009.60 1009.39 1009.32 1009.41 1009.45 1009.33
1021.21 1021.32 1021.55 1021.63 1021.74 1022.17 1022.53 1021.85 1021.33 1020.57 1018.58 1018.23 1017.18 1016.65 1015.78 1015.20 1014.83 1014.72 1014.48 1014.74 1015.06 1014.59 1014.31 1014.08 1013.79 1013.58 1013.35 1013.39 1013.76 1014.29 1014.59 1014.95 1014.78 1013.69 1011.80 1010.67 1009.68 1009.30 1009.14 1008.98 1008.78 1008.76 1009.07 1009.43
1020.53 1020.57 1020.85 1021.04 1021.17 1021.35 1021.85 1021.85 1021.87 1020.27 1018.15 1017.75 1016.89 1016.19 1015.76 1015.20 1014.76 1014.45 1014.43 1014.60 1014.76 1014.81 1014.81 1014.67 1013.94 1013.38 1013.20 1012.80 1013.43 1013.89 1014.48 1015.08 1014.78 1013.94 1012.60 1010.38 1009.41 1009.08 1009.01 1008.93 1008.84 1008.75 1009.03 1009.67
1020.01 1020.06 1020.15 1020.47 1020.59 1020.69 1021.09 1021.24 1021.51 1021.14 1018.99 1016.47 1016.58 1015.91 1015.37 1014.75 1014.46 1014.17 1014.18 1014.60 1014.91 1015.30 1015.19 1014.99 1014.46 1013.14 1012.28 1012.98 1013.53 1013.66 1014.19 1014.73 1015.10 1013.68 1012.55 1010.47 1009.27 1008.80 1008.77 1008.85 1009.12 1008.98 1009.12 1009.86
1019.46 1019.58 1019.69 1019.76 1019.78 1019.93 1020.27 1020.05 1020.46 1020.56 1018.77 1016.71 1017.28 1015.55 1014.90 1014.50 1014.18 1013.76 1014.07 1014.85 1015.41 1015.57 1015.33 1015.02 1014.16 1012.94 1011.97 1012.07 1012.55 1013.24 1013.89 1014.29 1014.19 1013.46 1012.27 1009.93 1009.01 1008.81 1008.82 1009.14 1009.94 1009.14 1009.25 1009.85
1018.73 1018.84 1018.88 1018.91 1019.00 1018.88 1019.23 1018.34 1019.01 1019.16 1017.93 1016.25 1016.44 1015.81 1015.07 1014.12 1013.72 1013.65 1014.00 1014.62 1014.91 1015.44 1015.13 1014.39 1013.27 1012.54 1011.54 1011.20 1010.75 1011.24 1011.63 1012.46 1012.39 1011.87 1011.27 1010.19 1009.21 1009.15 1009.41 1009.67 1009.41 1009.20 1009.28 1009.75
1017.61 1017.51 1017.48 1017.41 1017.43 1017.49 1017.47 1016.76 1017.22 1017.80 1017.35 1015.09 1015.04 1014.82 1014.74 1014.39 1013.60 1013.90 1013.62 1013.13 1013.33 1013.59 1013.92 1013.21 1012.50 1011.94 1011.50 1010.76 1010.54 1010.45 1010.63 1010.38 1010.60 1010.37 1009.91 1009.54 1009.46 1009.54 1009.69 1009.69 1009.75 1009.67 1009.53 1009.80
1016.42 1016.20 1015.89 1015.65 1015.63 1015.66 1015.84 1015.56 1015.93 1016.31 1015.94 1014.90 1014.44 1013.02 1013.81 1013.87 1014.05 1013.09 1013.33 1012.87 1012.60 1012.90 1012.70 1012.78 1012.50 1012.04 1011.17 1010.76 1010.22 1009.87 1010.05 1009.97 1010.25 1010.02 1009.87 1009.69 1009.72 1009.87 1009.95 1010.05 1010.17 1010.17 1010.10 1010.07
1015.09 1014.62 1014.19 1013.75 1013.68 1013.69 1013.82 1013.44 1013.88 1014.34 1014.37 1013.41 1010.35 1011.30 1012.10 1012.72 1012.93 1013.22 1012.79 1012.55 1012.82 1013.02 1013.05 1012.99 1012.61 1012.11 1011.00 1010.61 1010.05 1009.70 1009.43 1009.95 1009.91 1009.94 1009.89 1010.10 1010.32 1010.48 1010.58 1010.52 1010.56 1010.62 1010.68 1010.69
1013.53 1012.87 1012.28 1011.61 1011.33 1011.00 1010.92 1009.92 1009.68 1010.45 1011.79 1010.60 1010.53 1010.38 1010.39 1011.49 1011.85 1012.70 1012.59 1012.41 1012.83 1013.04 1013.44 1013.00 1012.43 1011.62 1011.49 1011.10 1010.78 1009.96 1009.43 1009.12 1009.54 1009.73 1010.00 1010.08 1010.79 1011.04 1011.11 1011.11 1011.23 1011.19 1011.14 1011.21
1011.97 1011.13 1010.16 1009.38 1008.55 1007.71 1007.10 1006.27 1006.58 1007.35 1009.04 1010.87 1010.21 1009.91 1009.71 1010.50 1011.25 1011.87 1012.18 1012.04 1012.00 1011.89 1012.21 1012.24 1011.70 1011.39 1011.54 1011.38 1010.83 1009.53 1009.36 1009.66 1009.22 1009.93 1010.30 1010.49 1010.83 1011.29 1011.53 1011.61 1011.76 1011.84 1011.79 1011.72
1010.50 1009.44 1008.41 1007.36 1006.18 1004.79 1004.23 1002.66 1001.79 1003.78 1007.61 1008.94 1009.33 1009.65 1010.10 1010.29 1011.05 1011.39 1011.40 1011.28 1011.37 1011.36 1011.58 1011.75 1011.61 1011.75 1011.47 1011.45 1010.87 1009.95 1010.18 1010.55 1010.66 1010.59 1010.58 1011.21 1011.29 1011.67 1011.77 1011.84 1011.90 1012.00 1012.13 1012.20
1008.82 1007.78 1006.81 1006.02 1004.91 1004.17 1002.86 1001.57 1001.01 1002.92 1005.89 1006.90 1007.76 1009.10 1010.28 1010.45 1010.03 1010.39 1010.61 1010.83 1011.31 1011.25 1011.41 1011.41 1011.44 1012.05 1011.95 1011.74 1010.37 1010.34 1010.76 1011.18 1011.41 1011.60 1011.13 1011.45 1011.82 1011.90 1012.03 1012.04 1012.16 1012.27 1012.45 1012.70
1007.35 1006.07 1004.74 1004.35 1004.30 1004.08 1003.08 1002.67 1002.62 1002.81 1004.48 1005.72 1006.89 1007.90 1009.01 1009.99 1009.43 1009.73 1010.28 1010.21 1010.93 1011.29 1011.19 1011.05 1011.45 1012.04 1011.99 1010.29 1010.38 1010.79 1011.16 1011.65 1012.08 1012.26 1011.83 1011.79 1012.15 1012.44 1012.52 1012.46 1012.52 1012.59 1012.88 1013.13
1006.53 1005.18 1004.04 1004.34 1003.80 1003.67 1003.67 1004.37 1004.58 1005.07 1004.96 1005.59 1006.26 1006.67 1008.30 1009.28 1008.85 1008.93 1009.66 1009.60 1010.14 1010.69 1010.84 1011.18 1011.68 1011.31 1010.95 1011.10 1011.21 1011.33 1011.85 1012.49 1012.64 1012.67 1012.64 1012.51 1012.64 1012.89 1013.06 1013.13 1013.10 1013.09 1013.21 1013.52
1007.32 1006.17 1005.05 1004.47 1003.89 1004.03 1004.53 1004.94 1004.85 1004.52 1004.98 1004.96 1005.49 1006.40 1007.41 1008.40 1008.37 1008.31 1008.09 1008.60 1009.19 1009.53 1010.28 1010.55 1010.87 1011.11 1011.30 1011.58 1012.25 1012.22 1012.53 1012.99 1013.03 1013.02 1013.04 1013.06 1012.96 1013.28 1013.50 1013.65 1013.64 1013.70 1013.79 1014.13
1007.85 1007.36 1006.36 1004.86 1004.36 1004.53 1004.67 1004.44 1004.34 1004.23 1003.64 1004.00 1004.53 1005.24 1006.40 1007.30 1007.20 1007.32 1007.49 1007.52 1008.42 1008.65 1009.34 1009.73 1010.53 1011.40 1011.75 1012.32 1012.86 1012.81 1013.11 1013.39 1013.51 1013.52 1013.58 1013.49 1013.55 1013.74 1013.94 1014.28 1014.47 1014.49 1014.62 1014.81
1007.17 1006.86 1005.89 1005.29 1005.34 1004.84 1004.33 1004.01 1003.90 1003.78 1003.70 1003.74 1004.02 1005.02 1005.86 1006.66 1006.65 1006.61 1006.47 1006.91 1007.81 1008.48 1008.98 1009.67 1010.83 1011.64 1012.21 1012.98 1013.40 1013.37 1013.66 1013.79 1014.24 1014.31 1013.95 1013.88 1014.17 1014.35 1014.52 1014.85 1014.90 1014.96 1015.13 1015.33
1007.18 1006.63 1006.67 1006.51 1006.44 1006.19 1005.86 1005.30 1004.85 1004.65 1003.81 1003.52 1003.91 1004.49 1005.12 1005.33 1005.64 1005.58 1006.47 1007.71 1008.03 1008.60 1009.29 1010.24 1011.41 1011.95 1012.50 1013.46 1013.82 1014.00 1014.26 1014.64 1014.94 1014.83 1014.69 1014.73 1014.95 1015.27 1015.43 1015.45 1015.42 1015.51 1015.76 1015.95
1007.54 1007.34 1007.51 1007.69 1007.62 1007.15 1006.49 1005.73 1005.35 1004.89 1004.06 1003.63 1003.66 1004.21 1004.52 1005.41 1005.99 1006.68 1007.58 1007.97 1008.09 1008.94 1010.36 1011.39 1012.08 1012.82 1013.73 1014.11 1014.35 1014.66 1014.77 1015.11 1015.25 1015.28 1015.46 1015.62 1015.69 1016.06 1016.32 1016.25 1016.13 1016.16 1016.35 1016.58
1008.45 1008.86 1008.60 1008.54 1008.24 1007.94 1007.33 1006.61 1005.93 1005.60 1004.94 1004.33 1004.29 1004.98 1005.74 1006.66 1007.04 1007.59 1008.23 1008.43 1009.29 1010.32 1011.11 1012.24 1013.00 1013.71 1014.18 1014.59 1014.99 1015.25 1015.18 1015.27 1015.55 1015.93 1016.12 1016.32 1016.65 1016.91 1016.97 1016.86 1016.85 1016.89 1016.99 1017.30
1009.93 1010.33 1010.08 1009.73 1009.48 1009.15 1008.62 1008.06 1007.19 1006.27 1005.83 1006.15 1006.12 1006.80 1007.82 1007.87 1008.38 1009.49 1009.90 1010.36 1010.91 1011.40 1012.38 1013.24 1013.81 1014.51 1015.11 1015.39 1015.50 1015.70 1015.86 1016.06 1016.31 1016.53 1016.85 1017.42 1017.57 1017.36 1017.35 1017.60 1017.80 1017.73 1017.81 1017.86
Wind_Speed
10 11 12 14 9 3 2 3 3 1 2 3 4 5 4 3 4 3 6 3 5 7 5 6 7 5 3 5 3 4 6 3 5 9 5 5 3 5 4 4 3 1 2 6
9 11 11 11 8 6 3 3 2 1 3 4 6 8 9 5 4 5 4 4 6 2 3 4 8 4 5 3 2 3 3 5 5 2 1 1 3 4 7 4 1 5 2 4
10 9 10 10 9 10 2 3 3 2 3 5 5 5 8 10 7 6 5 6 4 4 6 8 6 5 0 5 3 3 2 4 6 7 11 9 7 6 7 6 3 1 6 7
13 9 7 10 9 10 3 3 5 3 4 7 11 9 8 11 5 4 3 5 10 6 5 6 7 6 6 5 6 2 3 6 7 12 16 13 16 15 9 10 10 5 4 4
15 11 7 5 8 12 4 2 2 3 6 8 8 10 6 12 11 9 5 8 5 10 7 6 5 5 4 7 5 4 5 6 7 10 11 8 8 7 8 7 8 10 11 15
15 13 9 8 5 4 3 2 3 2 5 8 8 10 11 9 7 8 11 5 7 8 10 6 5 4 4 6 3 3 4 3 5 7 7 9 4 3 3 4 3 4 5 6
16 14 12 11 10 7 3 3 3 5 11 12 14 17 14 12 11 12 5 3 5 1 3 5 6 7 7 7 7 6 4 4 3 7 9 4 2 1 2 2 5 3 2 5
19 15 14 13 13 13 6 4 4 5 11 13 14 16 19 19 16 10 7 7 1 1 2 4 6 3 1 6 7 7 6 3 4 2 3 6 1 1 2 3 2 2 5 7
15 12 14 16 19 18 9 7 5 6 8 12 17 14 16 14 13 15 13 3 2 1 3 2 4 5 2 4 2 5 3 3 2 4 4 4 1 1 1 2 2 2 5 7
14 17 18 21 22 22 13 9 11 7 13 16 12 11 13 15 13 12 5 5 3 0 4 4 5 5 2 5 6 6 3 4 5 5 5 5 1 1 2 2 3 3 2 8
20 20 21 23 24 26 17 10 13 13 12 18 19 15 21 13 6 11 2 4 3 2 4 5 6 4 6 2 4 7 7 7 5 4 3 6 3 2 2 2 2 1 0 6
20 22 24 25 27 27 23 13 12 12 12 6 10 19 24 26 27 12 5 3 4 5 3 4 3 3 2 4 4 3 3 5 3 4 3 1 2 3 2 2 3 4 3 5
24 26 28 27 29 30 25 13 9 11 15 15 17 21 17 14 8 4 8 4 3 3 3 2 3 6 3 5 6 4 4 2 2 3 1 1 3 3 2 3 2 3 3 1
28 30 31 29 30 31 28 15 12 15 5 10 14 11 30 23 12 10 6 2 1 2 0 3 4 4 2 3 2 3 4 6 4 3 4 5 5 5 4 3 2 3 3 3
30 30 33 32 33 31 24 17 17 18 18 3 9 4 14 8 10 12 11 9 5 4 2 3 5 1 2 1 2 4 5 6 6 4 3 4 5 4 4 5 6 6 3 2
30 32 33 33 34 33 9 11 15 18 19 8 5 3 6 14 14 15 12 9 6 4 5 5 3 1 1 3 4 0 4 3 3 6 3 4 6 6 5 4 5 5 5 5
31 33 33 32 34 14 12 7 7 30 21 6 4 3 1 9 10 7 5 3 3 3 4 4 4 3 3 2 5 5 6 5 4 4 3 4 4 3 4 3 4 3 3 3
32 33 34 34 4 8 5 4 29 25 13 6 4 4 3 2 5 4 3 4 4 1 2 1 3 2 1 5 5 7 5 2 5 4 5 4 2 1 4 2 1 0 3 3
34 33 34 6 4 2 4 12 23 7 5 5 4 7 5 5 2 4 1 4 3 1 3 2 4 3 7 4 10 8 5 3 5 0 2 5 6 5 4 3 3 3 4 4
31 9 1 2 2 19 8 4 4 2 2 2 3 4 6 4 3 3 5 2 4 5 3 5 4 4 3 4 5 7 6 5 3 3 4 4 4 4 3 2 2 2 5 5
4 4 2 2 9 3 2 3 2 3 4 5 4 4 6 3 5 3 3 5 4 5 4 5 4 3 3 6 5 5 6 4 3 3 4 3 4 2 1 3 3 4 5 4
6 7 7 3 2 2 5 5 3 5 5 4 6 5 4 4 3 3 4 4 4 4 7 4 4 3 4 5 4 5 5 5 5 4 5 5 6 4 4 4 4 4 5 4
2 3 2 2 3 2 3 5 3 2 1 4 4 6 4 3 4 3 4 4 3 5 2 4 3 6 5 4 4 5 4 6 5 5 5 7 7 6 5 5 4 5 6 5
3 3 4 4 3 3 2 4 2 2 3 5 4 4 4 3 3 2 6 3 4 3 3 3 3 5 6 4 3 5 5 6 5 5 6 7 7 6 6 6 4 5 6 5
3 4 4 4 2 3 5 4 2 4 3 1 2 3 3 3 4 3 4 3 4 3 3 2 5 6 6 6 5 6 6 5 6 5 5 6 6 6 6 5 5 6 6 6
3 6 3 4 4 6 6 7 5 6 4 2 3 3 4 4 3 3 3 4 3 3 4 6 7 7 7 6 6 5 5 6 6 6 6 6 6 5 4 5 6 6 6 6
5 3 4 4 2 4 4 4 6 6 3 4 4 7 4 2 5 5 5 4 5 8 7 5 7 7 6 6 6 7 7 7 7 7 8 5 3 4 5 6 5 5 5 4
Wind_Direction
348 338 338 334 221 262 301 273 254 160 207 206 231 218 234 10 273 196 274 279 267 266 295 285 278 258 353 99 141 241 202 287 278 244 41 43 336 267 252 268 338 351 200 278
333 340 338 325 221 211 327 253 210 147 260 233 230 248 250 211 266 222 212 254 227 356 278 285 276 279 109 126 232 293 40 254 301 324 38 20 226 201 232 212 269 224 308 283
306 316 342 334 338 219 163 281 249 142 205 303 289 303 284 264 186 266 246 272 259 247 247 222 267 299 296 125 243 61 22 259 236 251 269 322 268 234 221 208 233 246 229 268
297 297 323 352 347 228 218 240 261 195 187 230 226 256 290 297 279 212 242 261 229 209 261 270 226 257 280 178 143 217 235 264 258 263 276 282 273 270 248 205 233 248 307 207
298 282 292 322 333 346 242 243 282 304 262 283 268 201 212 244 252 257 224 234 276 228 244 247 293 334 311 252 160 221 194 276 311 287 269 228 266 275 253 243 231 244 264 281
296 275 265 262 277 25 292 223 310 344 285 254 254 233 247 239 267 253 231 233 258 265 254 287 305 295 277 269 225 244 196 280 339 276 317 308 302 272 275 199 236 242 257 271
284 272 262 250 251 221 254 319 303 227 254 243 248 261 273 274 253 255 251 240 263 287 334 304 271 256 254 242 237 199 294 290 216 277 316 349 255 58 281 293 292 102 337 99
277 262 258 265 264 259 247 265 260 273 250 248 257 250 254 273 281 277 263 238 222 146 311 316 294 228 296 236 212 211 189 289 283 272 287 250 184 69 352 26 126 134 121 117
280 280 284 281 280 269 254 244 243 268 284 244 250 250 244 250 258 259 248 114 41 335 235 216 248 254 210 180 139 25 167 234 269 330 281 296 254 56 37 301 65 93 131 128
287 290 285 283 279 270 260 250 225 237 263 254 278 250 242 244 248 260 99 150 171 274 196 217 226 250 150 205 197 170 169 200 214 232 271 290 44 47 318 3 253 338 144 142
279 278 274 273 274 270 261 249 226 228 248 259 260 258 252 272 269 244 133 98 201 154 216 200 226 225 217 200 173 177 166 165 204 201 245 301 360 314 31 244 32 12 268 144
285 280 275 275 275 266 254 250 215 219 231 258 266 247 245 257 257 274 228 262 135 205 196 238 257 232 195 223 224 341 214 183 191 189 217 108 30 102 113 25 43 0 80 123
287 287 282 276 277 269 248 242 223 210 234 252 246 235 248 260 252 236 217 248 202 255 155 252 244 244 154 189 226 154 202 124 195 13 27 93 100 110 72 34 70 32 32 131
293 287 287 277 276 269 250 243 229 215 224 237 247 211 224 241 214 228 222 204 316 20 70 227 222 228 156 253 245 200 161 139 190 237 139 95 67 70 37 55 68 79 38 16
295 290 287 281 278 267 264 243 223 202 200 250 228 170 185 164 192 221 220 186 175 171 223 224 223 228 157 316 350 246 193 177 168 196 129 113 112 81 27 51 49 35 39 57
296 295 291 292 285 280 247 237 211 201 191 213 208 342 173 179 189 200 207 206 202 180 182 216 227 260 197 182 212 188 81 43 53 146 104 100 109 102 56 66 46 29 22 25
300 298 302 295 295 263 220 212 192 171 169 193 199 177 235 183 174 198 183 156 190 186 176 205 171 206 190 215 221 145 104 100 97 79 128 113 60 100 357 31 24 29 68 49
306 304 305 298 287 334 310 258 157 148 163 167 151 135 126 203 181 153 186 142 179 190 169 146 153 109 38 248 182 127 118 166 128 93 65 94 116 71 72 65 56 114 91 93
313 314 296 259 219 206 328 148 137 111 109 144 158 184 185 156 201 116 172 139 164 104 174 170 99 143 222 237 154 146 137 149 148 247 138 123 109 98 71 67 75 97 112 104
322 303 254 166 211 128 98 121 144 138 277 163 173 146 171 182 188 141 126 149 141 166 187 114 197 222 106 63 72 103 115 131 155 122 114 98 111 80 51 70 76 90 125 117
334 320 336 317 301 60 38 155 176 177 167 188 150 157 138 210 164 163 189 150 162 170 173 165 167 236 133 126 98 95 107 132 118 91 105 120 113 117 70 77 93 85 93 92
268 289 294 310 38 159 174 189 177 207 205 153 151 137 128 167 143 158 188 128 185 161 159 159 163 107 93 103 119 90 98 126 121 119 118 97 84 67 76 76 80 82 98 101
295 224 267 349 334 30 298 178 167 188 194 164 154 133 129 158 174 161 160 131 96 133 161 153 114 128 111 107 118 82 94 88 93 95 87 84 84 67 78 95 77 103 99 109
296 343 38 19 9 27 329 311 331 312 279 106 94 110 167 157 144 119 73 75 148 134 131 126 106 111 88 92 93 102 85 95 98 78 70 75 83 78 64 63 67 99 92 85
351 359 43 38 355 341 321 327 312 330 318 67 92 70 73 59 84 51 116 155 104 108 112 82 118 110 111 92 85 88 84 83 74 76 78 70 68 88 75 52 68 85 91 88
23 31 353 9 4 360 355 349 0 353 333 334 42 93 77 53 91 92 21 100 90 87 81 102 104 95 87 83 71 67 68 66 69 60 65 64 58 70 78 69 62 64 81 85
25 25 6 352 339 359 341 323 342 318 15 39 23 44 36 298 58 48 13 32 90 98 88 79 85 92 93 85 76 62 59 62 51 52 47 38 17 29 51 59 35 51 62 79